Weather Roundup
Issued by NWS

Home | Current Version | Previous Version | Text Only | Print | Product List | Glossary On
Versions: 1 2 3 4 5 6 7 8 9 10 11 12 13 14 15 16 17 18 19 20 21 22 23 24 25 26 27 28 29 30 31 32 33 34 35 36 37 38 39 40 41 42 43 44 45 46 47 48 49 50
000
NZUS93 KARX 190359
HRRWXR

CURRENT HOURLY OBSERVATIONS ACROSS
MUCH OF THE UPPER MISSISSIPPI VALLEY
NATIONAL WEATHER SERVICE LA CROSSE WI
1000 PM CST SAT FEB 18 2017


...SOUTHEAST MINNESOTA...


CITY           SKY/WX    TMP DP  RH WIND       PRES   REMARKS
ROCHESTER      CLOUDY    38  36  92 SW5       29.87R WCI  34
ROCHESTER/MAYO FAIR      46  37  73 CALM      29.87S
WINONA         PTCLDY    34  32  93 CALM      29.88R
AUSTIN         CLEAR     36  34  93 CALM      29.88R FOG
ALBERT LEA     CLOUDY    37  37 100 CALM      29.86S
DODGE CENTER   CLEAR     37  36  93 SW5       29.87R WCI  34
PRESTON        CLOUDY    41  37  86 NW5       29.88R
OWATONNA       CLEAR     37  34  87 SE5       29.86F WCI  34
FARIBAULT      CLOUDY    36  32  87 CALM      29.87S
$$

...ELSEWHERE IN MINNESOTA...


CITY           SKY/WX    TMP DP  RH WIND       PRES   REMARKS
MINNEAPOLIS    MOCLDY    48  37  65 S5        29.85S
INTNL FALLS    PTCLDY    34  29  82 W6        29.79R WCI  29
DULUTH         PTCLDY    42  31  64 NW9       29.78S
RED WING       CLOUDY    34  30  86 CALM      29.86R
REDWOOD FALLS  CLEAR     39  35  86 SE6       29.82F WCI  35
MANKATO          N/A     43  36  76 SE5       29.86
WORTHINGTON    CLEAR     43  39  86 SE7       29.83F
FAIRMONT       CLOUDY    37  35  92 SE3       29.85F
$$

...SOUTHWEST WISCONSIN...


CITY           SKY/WX    TMP DP  RH WIND       PRES   REMARKS
LA CROSSE      PTCLDY    36  30  79 CALM      29.87R
PRAIRIE DU CHI CLEAR     36  33  88 CALM      29.86R
BOSCOBEL       CLEAR     33  30  88 CALM      29.87R
LONE ROCK      NOT AVBL
PLATTEVILLE    CLEAR     43  41  92 N3        29.85R
FORT MC COY    CLEAR     30  27  88 CALM      29.88R
MAUSTON-NEW LI CLEAR     33  30  88 CALM      29.83R
VIROQUA        FAIR      44  31  60 CALM      29.86R
WIS DELLS      CLOUDY    39  29  65 CALM      29.84R
$$

...ELSEWHERE IN WISCONSIN...


CITY           SKY/WX    TMP DP  RH WIND       PRES   REMARKS
MILWAUKEE      CLEAR     44  37  76 CALM      29.82R
MADISON        PTCLDY    34  32  92 CALM      29.83R
GREEN BAY      CLOUDY    43  33  68 W9        29.80R
EAU CLAIRE     NOT AVBL
BLACK RVR FLS  FAIR      27  26  95 CALM      29.86R
MEDFORD        CLOUDY    40  31  70 W7        29.81R
WAUSAU         PTCLDY    41  32  70 NW3       29.81R
WIS RAPIDS     PTCLDY    36  29  75 SW3       29.85R
MARSHFIELD     PTCLDY    42  31  64 W7        29.83R
RICE LAKE      CLOUDY    36  32  85 CALM      29.85S
$$

...NORTHEAST IOWA...


CITY           SKY/WX    TMP DP  RH WIND       PRES   REMARKS
WATERLOO       FOG       31  29  92 CALM      29.86R VSB 1/4
DUBUQUE        CLEAR     33  31  92 CALM      29.85R
DECORAH        CLEAR     39  37  93 CALM      29.87R
MASON CITY     CLOUDY    33  32  96 CALM      29.89R FOG
CHARLES CITY   FOG       37  37 100 N6        29.88R VSB 3/4 WCI  33
OELWEIN        NOT AVBL
$$

...ELSEWHERE IN IOWA...


CITY           SKY/WX    TMP DP  RH WIND       PRES   REMARKS
DES MOINES     CLOUDY    47  35  63 E6        29.85S
IOWA CITY      CLEAR     37  32  82 CALM      29.87R
FORT DODGE     CLOUDY    30  27  86 CALM      29.87R
MARSHALLTOWN   CLOUDY    36  35  96 CALM      29.85R FOG
CEDAR RAPIDS   CLEAR     38  36  92 NW7       29.85R WCI  33
$$

...NORTHERN ILLINOIS...


CITY           SKY/WX    TMP DP  RH WIND       PRES   REMARKS
CHICAGO-OHARE  CLEAR     48  36  63 W3        29.81R
CHICAGO-MIDWAY CLEAR     48  33  56 CALM      29.82R
MOLINE         CLEAR     39  30  70 CALM      29.85R
ROCKFORD       CLEAR     40  33  76 CALM      29.85R
PEORIA         CLEAR     47  38  71 CALM      29.85R
$$

NOTE: "FAIR" INDICATES FEW OR NO CLOUDS BELOW 12,000 FEET WITH NO
SIGNIFICANT WEATHER AND/OR OBSTRUCTIONS TO VISIBILITY. WIND
SPEEDS ARE IN MILES-PER-HOUR.




USA.gov is the U.S. government's official web portal to all federal, state and local government web resources and services.